Weather History for KBOS - October, 2014

Change the Weather History Date:

Tuesday, October 14, 2014

  Actual Average Record
Temperature  
Mean Temperature 68 °F 54 °F  
Max Temperature 78 °F 62 °F 81 °F (1923)
Min Temperature 57 °F 47 °F 31 °F (1875)
Degree Days  
Heating Degree Days 0 11  
Month to date heating degree days 113 122  
Since 1 July heating degree days 189 219  
Cooling Degree Days 3 0  
Month to date cooling degree days 4 6  
Year to date cooling degree days 763 746  
Growing Degree Days 18 (Base 50)    
Moisture  
Dew Point 60 °F    
Average Humidity 75    
Maximum Humidity 93    
Minimum Humidity 56    
Precipitation  
Precipitation 0.00 in 0.13 in 3.34 in (1990)
Month to date precipitation 2.01 1.78  
Year to date precipitation 29.60 33.84  
Sea Level Pressure  
Sea Level Pressure 30.21 in    
Wind  
Wind Speed 11 mph (SSW)    
Max Wind Speed 23 mph    
Max Gust Speed 28 mph    
Visibility 10 miles    
Events      
T = Trace of Precipitation, MM = Missing Value Source: NWS Daily Summary

Daily Weather History Graph

Daily Weather History Graph

Search for Another Location

Airport or City:

Trip Planner

Search our weather history database for the weather conditions in past years. The results will help you decide how hot, cold, wet, or windy it might be!

Date:

Astronomy

Oct. 14, 2014 Rise Set
Actual Time 6:55 AM EDT 6:03 PM EDT
Civil Twilight 6:27 AM EDT 6:31 PM EDT
Nautical Twilight 5:54 AM EDT 7:04 PM EDT
Astronomical Twilight 5:22 AM EDT 7:36 PM EDT
Moon 11:03 PM EDT (10/14) 12:57 PM EDT (10/14)
Length of Visible Light 12h 04m
Length of Day
11h 08m
Waning Gibbous, 61% of the Moon is Illuminated
Oct 14
Waning Gibbous
Oct 15
Last Quarter
Oct 23
New
Oct 30
First Quarter
Nov 6
Full

Hourly Weather History & Observations

Time (EDT) Temp. Dew Point Humidity Pressure Visibility Wind Dir Wind Speed Gust Speed Precip Events Conditions
12:54 AM 57.9 °F 54.0 °F 87% 30.25 in 10.0 mi South 4.6 mph - N/A   Mostly Cloudy
1:54 AM 61.0 °F 55.0 °F 81% 30.25 in 10.0 mi SSW 8.1 mph - N/A   Overcast
2:51 AM 60.8 °F 55.4 °F 82% 30.25 in 10.0 mi SSW 8.1 mph - N/A   Mostly Cloudy
2:54 AM 61.0 °F 55.0 °F 81% 30.25 in 10.0 mi SSW 8.1 mph - N/A   Mostly Cloudy
3:54 AM 60.1 °F 55.9 °F 86% 30.23 in 10.0 mi South 6.9 mph - N/A   Overcast
4:54 AM 62.1 °F 57.0 °F 84% 30.24 in 10.0 mi SSW 9.2 mph - N/A   Overcast
5:54 AM 62.1 °F 59.0 °F 90% 30.24 in 7.0 mi SSW 9.2 mph - N/A   Overcast
6:01 AM 62.6 °F 59.0 °F 88% 30.24 in 10.0 mi SSW 10.4 mph - N/A   Overcast
6:54 AM 63.0 °F 59.0 °F 87% 30.24 in 10.0 mi SSW 6.9 mph - N/A   Overcast
7:54 AM 63.0 °F 60.1 °F 90% 30.25 in 10.0 mi South 5.8 mph - N/A   Overcast
8:42 AM 64.4 °F 60.8 °F 88% 30.26 in 10.0 mi South 6.9 mph - N/A   Overcast
8:54 AM 64.9 °F 60.1 °F 84% 30.26 in 10.0 mi South 9.2 mph - N/A   Overcast
9:54 AM 69.1 °F 62.1 °F 78% 30.25 in 10.0 mi SSW 11.5 mph - N/A   Scattered Clouds
10:54 AM 72.0 °F 62.1 °F 71% 30.24 in 10.0 mi SW 11.5 mph - N/A   Mostly Cloudy
11:33 AM 73.4 °F 62.6 °F 69% 30.22 in 10.0 mi SW 13.8 mph - N/A   Mostly Cloudy
11:54 AM 75.0 °F 62.1 °F 64% 30.22 in 10.0 mi SW 13.8 mph - N/A   Scattered Clouds
12:54 PM 75.9 °F 62.1 °F 62% 30.20 in 10.0 mi SSW 16.1 mph 23.0 mph N/A   Mostly Cloudy
1:54 PM 77.0 °F 61.0 °F 58% 30.18 in 10.0 mi SW 18.4 mph 26.5 mph N/A   Scattered Clouds
2:54 PM 75.9 °F 62.1 °F 62% 30.18 in 10.0 mi SSW 16.1 mph 20.7 mph N/A   Scattered Clouds
3:54 PM 75.0 °F 61.0 °F 62% 30.17 in 10.0 mi South 12.7 mph - N/A   Scattered Clouds
4:54 PM 72.0 °F 60.1 °F 66% 30.17 in 10.0 mi South 16.1 mph 21.9 mph N/A   Scattered Clouds
5:54 PM 71.1 °F 59.0 °F 66% 30.17 in 10.0 mi SSW 17.3 mph 24.2 mph N/A   Scattered Clouds
6:54 PM 68.0 °F 60.1 °F 76% 30.18 in 10.0 mi South 10.4 mph - N/A   Scattered Clouds
7:54 PM 66.9 °F 61.0 °F 81% 30.18 in 10.0 mi SSW 11.5 mph - N/A   Clear
8:54 PM 66.0 °F 62.1 °F 87% 30.19 in 10.0 mi South 11.5 mph - N/A   Clear
9:54 PM 64.9 °F 61.0 °F 87% 30.18 in 10.0 mi South 8.1 mph - N/A   Clear
10:54 PM 64.0 °F 61.0 °F 90% 30.17 in 10.0 mi South 6.9 mph - N/A   Clear
11:54 PM 63.0 °F 61.0 °F 93% 30.16 in 10.0 mi South 6.9 mph - N/A   Clear